Location: *
(58.7167°N, 26.1833°E)
Time: 22:48:18
(UTC+00:00)

Cosmos 2333 Rocket - Pass Details

Date: 25 August 2019
Orbit: 841 x 860 km, 70.8° (Epoch: 19 September)

Event Time Altitude Azimuth Distance (km) Brightness Sun altitude
Rises 20:55:46 0° 320° (NW) 3,412 6.7 -18.7°
Reaches altitude 10° 20:58:14 10° 322° (NW) 2,475 5.7 -18.8°
Maximum altitude 21:03:55 73° 48° (NE) 887 2.3 -19.1°
Enters shadow 21:06:54 29° 128° (SE) 1,504 3.0 -19.2°
